Location: The Saddle
(36.8333°N, 80.3417°W)
Time: 19:19:23
(UTC-05:00)

Explorer 7 - All Passes

Search period start: 22 January 2022 00:00
Search period end: 01 February 2022 00:00
Orbit: 483 x 674 km, 50.3° (Epoch: 22 January)

Date Brightness Start Highest point End Pass type
(mag) Time Alt. Az. Time Alt. Az. Time Alt. Az.
22 Jan - 10:29:34 10° SW 10:33:36 74° SE 10:37:56 10° NE daylight
22 Jan - 12:10:58 10° WNW 12:14:29 24° NNW 12:18:10 10° NNE daylight
22 Jan - 13:53:44 10° NW 13:56:17 15° N 13:58:54 10° NNE daylight
22 Jan - 15:34:32 10° NNW 15:38:09 22° NNE 15:41:53 10° ENE daylight
22 Jan - 17:14:32 10° NW 17:19:18 74° NE 17:24:10 10° ESE daylight
22 Jan - 18:56:05 10° W 18:59:27 19° SW 19:02:51 10° S visible
23 Jan - 08:55:05 10° SSE 08:57:30 16° SE 08:59:59 10° E daylight
23 Jan - 10:33:25 10° WSW 10:37:27 68° NW 10:41:47 10° NE daylight
23 Jan - 12:15:29 10° WNW 12:18:38 19° NNW 12:21:54 10° NNE daylight
23 Jan - 13:57:56 10° NNW 14:00:32 15° N 14:03:11 10° NE daylight
23 Jan - 15:38:16 10° NW 15:42:16 28° NNE 15:46:24 10° E daylight
23 Jan - 17:18:24 10° NW 17:23:08 72° SW 17:28:00 10° SE daylight
23 Jan - 19:01:42 10° WSW 19:03:04 11° SW 19:04:26 10° SW visible
24 Jan - 08:57:47 10° S 09:01:08 27° SE 09:04:38 10° ENE daylight
24 Jan - 10:37:30 10° WSW 10:41:24 43° NNW 10:45:33 10° NE daylight
24 Jan - 12:20:04 10° NW 12:22:49 16° N 12:25:41 10° NNE daylight
24 Jan - 14:01:57 10° NNW 14:04:46 16° N 14:07:40 10° NE daylight
24 Jan - 15:41:59 10° NW 15:46:18 37° NNE 15:50:47 10° E daylight
24 Jan - 17:22:24 10° WNW 17:26:55 45° SW 17:31:33 10° SSE daylight
25 Jan - 09:01:03 10° SSW 09:04:49 46° SE 09:08:50 10° ENE daylight
25 Jan - 10:41:47 10° W 10:45:25 30° NNW 10:49:16 10° NE daylight
25 Jan - 12:24:35 10° NW 12:27:02 15° N 12:29:35 10° NNE daylight
25 Jan - 14:05:48 10° NNW 14:08:58 18° NNE 14:12:14 10° ENE daylight
25 Jan - 15:45:44 10° NW 15:50:17 53° NE 15:55:00 10° ESE daylight
25 Jan - 17:26:36 10° WNW 17:30:39 28° SW 17:34:46 10° S daylight
26 Jan - 09:04:40 10° SW 09:08:36 81° SE 09:12:48 10° NE daylight
26 Jan - 10:46:13 10° WNW 10:49:30 22° NNW 10:52:57 10° NNE daylight
26 Jan - 12:28:58 10° NNW 12:31:17 14° N 12:33:40 10° NNE daylight
26 Jan - 14:09:33 10° NNW 14:13:07 22° NNE 14:16:48 10° ENE daylight
26 Jan - 15:49:30 10° NW 15:54:10 80° NE 15:59:00 10° SE daylight
26 Jan - 17:31:13 10° W 17:34:18 17° SW 17:37:25 10° SSW daylight
27 Jan - 07:29:58 10° SSE 07:32:27 16° SE 07:35:01 10° E daylight
27 Jan - 09:08:34 10° WSW 09:12:28 61° NW 09:16:37 10° NE daylight
27 Jan - 10:50:45 10° WNW 10:53:39 18° NNW 10:56:39 10° NNE daylight
27 Jan - 12:33:08 10° NNW 12:35:32 14° N 12:38:00 10° NE daylight
27 Jan - 14:13:16 10° NW 14:17:12 28° NNE 14:21:17 10° E daylight
27 Jan - 15:53:23 10° WNW 15:58:00 66° SW 16:02:47 10° SE daylight
28 Jan - 07:32:46 10° SSW 07:36:06 28° SE 07:39:34 10° ENE daylight
28 Jan - 09:12:41 10° W 09:16:24 39° NNW 09:20:21 10° NE daylight
28 Jan - 10:55:21 10° NW 10:57:50 15° N 11:00:25 10° NNE daylight
28 Jan - 12:37:04 10° NNW 12:39:44 16° N 12:42:31 10° NE daylight
28 Jan - 14:16:58 10° NW 14:21:13 38° NNE 14:25:38 10° E daylight
28 Jan - 15:57:24 10° WNW 16:01:46 41° SW 16:06:17 10° SSE daylight
29 Jan - 07:36:05 10° SSW 07:39:48 50° SE 07:43:43 10° ENE daylight
29 Jan - 09:17:00 10° W 09:20:25 27° NNW 09:24:03 10° NE daylight
29 Jan - 10:59:52 10° NW 11:02:04 14° N 11:04:18 10° NNE daylight
29 Jan - 12:40:52 10° NNW 12:43:55 18° NNE 12:47:05 10° ENE daylight
29 Jan - 14:20:42 10° NW 14:25:09 56° NE 14:29:49 10° ESE daylight
29 Jan - 16:01:39 10° WNW 16:05:28 25° SW 16:09:24 10° S daylight
30 Jan - 07:39:45 10° SW 07:43:36 88° SE 07:47:39 10° NE daylight
30 Jan - 09:21:27 10° WNW 09:24:30 21° NNW 09:27:42 10° NNE daylight
30 Jan - 11:04:13 10° NNW 11:06:17 13° N 11:08:25 10° NNE daylight
30 Jan - 12:44:35 10° NNW 12:48:03 22° NNE 12:51:39 10° ENE daylight
30 Jan - 14:24:30 10° NW 14:29:01 85° NE 14:33:47 10° SE daylight
30 Jan - 16:06:24 10° W 16:09:07 15° SW 16:11:53 10° SSW daylight
31 Jan - 06:04:50 10° S 06:07:24 17° SE 06:10:03 10° E visible
31 Jan - 07:43:41 10° WSW 07:47:27 55° NW 07:51:27 10° NE daylight
31 Jan - 09:26:01 10° NW 09:28:39 17° NNW 09:31:22 10° NNE daylight
31 Jan - 11:08:18 10° NNW 11:10:31 14° N 11:12:46 10° NE daylight
31 Jan - 12:48:16 10° NW 12:52:06 29° NNE 12:56:07 10° E daylight
31 Jan - 14:28:22 10° WNW 14:32:50 61° SW 14:37:30 10° SE daylight
